Regional Weather Roundup
Issued by NWS

Home | Current Version | Previous Version | Graphics & Text | Print | Product List | Glossary On
Versions: 1 2 3 4 5 6 7 8 9 10 11 12 13 14 15 16 17 18 19 20 21 22 23 24 25 26 27 28 29 30 31 32 33 34 35 36 37 38 39 40 41 42 43 44 45 46 47 48 49 50
329
ASUS43 KBIS 201002
RWRND

NORTH DAKOTA REGIONAL WEATHER ROUNDUP
NATIONAL WEATHER SERVICE BISMARCK ND
400 AM CST SAT JAN 20 2018

NOTE: "FAIR" INDICATES FEW OR NO CLOUDS BELOW 12,000 FEET WITH NO
SIGNIFICANT WEATHER AND/OR OBSTRUCTIONS TO VISIBILITY.


NDZ001>003-009>011-017-201100-
NORTHWEST NORTH DAKOTA

CITY           SKY/WX    TMP DP  RH WIND       PRES   REMARKS
WILLISTON      PTCLDY    28  22  78 SW8       29.74S WCI  20
MINOT          MOCLDY    30  24  78 SW13      29.71S WCI  20
MINOT AFB      MOCLDY    30  24  79 W5        29.70R
$$

NDZ018>021-031>035-040>046-201100-
SOUTHWEST NORTH DAKOTA

CITY           SKY/WX    TMP DP  RH WIND       PRES   REMARKS
BISMARCK       MOCLDY    34  30  85 W8        29.78R
DICKINSON      CLOUDY    33  30  88 W10       29.75S
GARRISON         N/A     28  25  88 W8        29.73S WCI  20
HETTINGER ARPT CLOUDY    32  30  92 NW6       29.81R
$$

NDZ004>008-012>016-024-026-027-054-201100-
NORTHEAST NORTH DAKOTA

CITY           SKY/WX    TMP DP  RH WIND       PRES   REMARKS
GRAND FORKS    FAIR      30  26  85 W9        29.70F
GRND FRKS AFB  FAIR      31  25  79 NW9       29.70F
DEVILS LAKE    CLOUDY    27  23  85 W9        29.72S WCI  18
$$

NDZ022-023-025-028>030-036>039-047>053-201100-
SOUTHEAST NORTH DAKOTA

CITY           SKY/WX    TMP DP  RH WIND       PRES   REMARKS
FARGO          FAIR      22  21  96 SW6       29.74S WCI  14
JAMESTOWN      MOCLDY    30  26  85 W9        29.73S
$$





USA.gov is the U.S. government's official web portal to all federal, state and local government web resources and services.